EW0750 Weather Reports


time (UTC)temp
C
wind
direction
speed
KPH
gust
KPH
rain 1hr
cm
rain 24hr
cm
rain mn
cm
humidity
%
barometer
mb
20260507190121 21 144 0.0 8.0 0.00 0.00 0.00 71 1015.6
20260507185517 21 144 0.0 8.0 0.00 0.00 0.00 73 1015.6
20260507185014 21 144 0.0 9.7 0.00 0.00 0.00 75 1015.7
20260507184514 20 144 0.0 6.4 0.00 0.00 0.00 75 1015.8
20260507184007 20 144 0.0 4.8 0.00 0.00 0.00 76 1015.7
20260507183508 20 144 0.0 8.0 0.00 0.00 0.00 78 1015.8
20260507183001 19 144 0.0 8.0 0.00 0.00 0.00 79 1015.7
20260507182559 19 144 0.0 3.2 0.00 0.00 0.00 80 1015.8
20260507182056 18 144 0.0 4.8 0.00 0.00 0.00 81 1015.7
20260507181553 18 144 0.0 9.7 0.00 0.00 0.00 81 1015.7
20260507181051 18 144 0.0 3.2 0.00 0.00 0.00 82 1015.7
20260507180651 18 144 0.0 3.2 0.00 0.00 0.00 82 1015.8
20260507180145 18 144 0.0 4.8 0.00 0.00 0.00 82 1015.8
20260507175543 18 144 0.0 3.2 0.00 0.00 0.00 83 1015.8
20260507175040 17 144 0.0 3.2 0.00 0.00 0.00 83 1015.8
20260507174536 17 144 0.0 1.6 0.00 0.00 0.00 84 1015.9
20260507174033 17 144 0.0 1.6 0.00 0.00 0.00 84 1016.0
20260507173530 17 144 0.0 4.8 0.00 0.00 0.00 85 1016.0
20260507173027 17 144 0.0 3.2 0.00 0.00 0.00 86 1016.0
20260507172525 17 144 0.0 4.8 0.00 0.00 0.00 86 1016.0
20260507172020 17 144 0.0 4.8 0.00 0.00 0.00 87 1016.1
20260507171517 17 144 0.0 3.2 0.00 0.00 0.00 88 1016.2
20260507171015 17 144 0.0 3.2 0.00 0.00 0.00 88 1016.2
20260507170516 16 144 0.0 3.2 0.00 0.00 0.00 89 1016.2
20260507170110 16 144 0.0 1.6 0.00 0.00 0.00 89 1016.1
20260507165506 16 144 0.0 1.6 0.00 0.00 0.00 90 1016.2
20260507165004 16 144 0.0 4.8 0.00 0.00 0.00 90 1016.2
20260507164502 16 144 0.0 4.8 0.00 0.00 0.00 91 1016.2
20260507164101 16 144 0.0 1.6 0.00 0.00 0.00 91 1016.2
20260507163557 16 144 0.0 0.0 0.00 0.00 0.00 91 1016.3
20260507163059 16 144 0.0 1.6 0.00 0.00 0.00 92 1016.3
20260507162552 15 144 0.0 0.0 0.00 0.00 0.00 92 1016.2
20260507162054 15 144 0.0 0.0 0.00 0.00 0.00 92 1016.2
20260507161547 15 144 0.0 0.0 0.00 0.00 0.00 92 1016.2
20260507161045 15 144 0.0 0.0 0.00 0.00 0.00 92 1016.2
20260507160543 15 144 0.0 0.0 0.00 0.00 0.00 92 1016.3
20260507160047 15 144 0.0 0.0 0.00 0.00 0.00 93 1016.3
20260507155640 15 144 0.0 0.0 0.00 0.00 0.00 93 1016.3
20260507155037 15 144 0.0 0.0 0.00 0.00 0.00 93 1016.4
20260507154536 15 144 0.0 0.0 0.00 0.00 0.00 93 1016.5
20260507154033 15 144 0.0 0.0 0.00 0.00 0.00 93 1016.5
20260507153530 14 144 0.0 0.0 0.00 0.00 0.00 93 1016.6
20260507153031 14 144 0.0 0.0 0.00 0.00 0.00 93 1016.6
20260507152527 14 144 0.0 0.0 0.00 0.00 0.00 93 1016.5
20260507152025 14 144 0.0 0.0 0.00 0.00 0.00 92 1016.6
20260507151523 13 144 0.0 0.0 0.00 0.00 0.00 92 1016.6
20260507151121 13 144 0.0 0.0 0.00 0.00 0.00 92 1016.6
20260507150518 13 144 0.0 0.0 0.00 0.00 0.00 92 1016.6
20260507150020 13 144 0.0 0.0 0.00 0.00 0.00 91 1016.5
20260507145614 13 144 0.0 0.0 0.00 0.00 0.00 91 1016.5
20260507145012 13 144 0.0 0.0 0.00 0.00 0.00 91 1016.5
20260507144512 13 144 0.0 0.0 0.00 0.00 0.00 90 1016.4
20260507144008 13 144 0.0 0.0 0.00 0.00 0.00 90 1016.4
20260507143506 13 144 0.0 0.0 0.00 0.00 0.00 89 1016.3
20260507143006 12 144 0.0 0.0 0.00 0.00 0.00 89 1016.2
20260507142504 12 144 0.0 0.0 0.00 0.00 0.00 89 1016.2
20260507142059 12 144 0.0 0.0 0.00 0.00 0.00 89 1016.2
20260507141600 12 144 0.0 0.0 0.00 0.00 0.00 89 1016.2
20260507141055 12 144 0.0 0.0 0.00 0.00 0.00 89 1016.1
20260507140554 12 144 0.0 0.0 0.00 0.00 0.00 89 1016.2
20260507140155 12 144 0.0 0.0 0.00 0.00 0.00 89 1016.1
20260507135549 12 144 0.0 0.0 0.00 0.00 0.00 89 1016.1
20260507135046 12 144 0.0 0.0 0.00 0.00 0.00 88 1016.1
20260507134648 12 144 0.0 0.0 0.00 0.00 0.00 88 1016.0
20260507134142 12 144 0.0 0.0 0.00 0.00 0.00 88 1015.9
20260507133540 12 144 0.0 0.0 0.00 0.00 0.00 88 1015.7
20260507133039 12 144 0.0 0.0 0.00 0.00 0.00 88 1015.7
20260507132536 12 144 0.0 0.0 0.00 0.00 0.00 88 1015.7
20260507132035 12 144 0.0 0.0 0.00 0.00 0.00 87 1015.7
20260507131536 12 144 0.0 0.0 0.00 0.00 0.00 87 1015.7
20260507131135 12 144 0.0 0.0 0.00 0.00 0.00 87 1015.7
20260507130534 12 144 0.0 0.0 0.00 0.00 0.00 87 1015.7
20260507130031 12 144 0.0 0.0 0.00 0.00 0.00 87 1015.6
20260507125529 12 144 0.0 0.0 0.00 0.00 0.00 87 1015.6
20260507125027 12 144 0.0 0.0 0.00 0.00 0.00 87 1015.6
20260507124542 12 144 0.0 0.0 0.00 0.00 0.00 87 1015.6
20260507124023 12 144 0.0 0.0 0.00 0.00 0.00 87 1015.6
20260507123520 12 144 0.0 0.0 0.00 0.00 0.00 87 1015.6
20260507123018 12 144 0.0 0.0 0.00 0.00 0.00 86 1015.5
20260507122516 12 144 0.0 0.0 0.00 0.00 0.00 86 1015.5
20260507122013 12 144 0.0 0.0 0.00 0.00 0.00 86 1015.5
20260507121512 12 144 0.0 0.0 0.00 0.00 0.00 86 1015.5
20260507121110 12 144 0.0 0.0 0.00 0.00 0.00 86 1015.5
20260507120513 12 144 0.0 0.0 0.00 0.00 0.00 86 1015.5
20260507120006 12 144 0.0 0.0 0.00 0.00 0.00 86 1015.5
20260507115505 12 144 0.0 0.0 0.00 0.00 0.00 86 1015.5
20260507115002 12 144 0.0 0.0 0.00 0.00 0.00 86 1015.5
20260507114501 12 144 0.0 0.0 0.00 0.00 0.00 86 1015.5
20260507114059 12 144 0.0 0.0 0.00 0.00 0.00 86 1015.6
20260507113558 12 144 0.0 0.0 0.00 0.00 0.00 85 1015.5
20260507113057 12 144 0.0 0.0 0.00 0.00 0.00 85 1015.5
20260507112554 13 144 0.0 0.0 0.00 0.00 0.00 85 1015.6
20260507112052 13 144 0.0 0.0 0.00 0.00 0.00 85 1015.7
20260507111648 13 144 0.0 0.0 0.00 0.00 0.00 85 1015.7
20260507111045 13 144 0.0 0.0 0.00 0.00 0.00 86 1015.7
20260507110543 13 144 0.0 0.0 0.00 0.00 0.00 86 1015.8
20260507110045 13 144 0.0 0.0 0.00 0.00 0.00 86 1015.8
20260507105539 13 144 0.0 0.0 0.00 0.00 0.00 86 1015.9
20260507105037 13 144 0.0 0.0 0.00 0.00 0.00 86 1015.8
20260507104545 13 144 0.0 0.0 0.00 0.00 0.00 85 1015.8
20260507104136 13 144 0.0 0.0 0.00 0.00 0.00 85 1015.8
20260507103532 13 144 0.0 0.0 0.00 0.00 0.00 85 1015.9
20260507103030 13 144 0.0 0.0 0.00 0.00 0.00 85 1015.9
20260507102528 13 144 0.0 0.0 0.00 0.00 0.00 85 1016.0
20260507102025 13 144 0.0 0.0 0.00 0.00 0.00 85 1016.0
20260507101526 13 144 0.0 0.0 0.00 0.00 0.00 85 1015.9
20260507101021 13 144 0.0 0.0 0.00 0.00 0.00 85 1016.0
20260507100619 13 144 0.0 0.0 0.00 0.00 0.00 85 1015.9
20260507100023 13 144 0.0 0.0 0.00 0.00 0.00 85 1016.0
20260507095515 13 144 0.0 0.0 0.00 0.00 0.00 85 1016.0
20260507095014 13 144 0.0 0.0 0.00 0.00 0.00 85 1016.1
20260507094511 13 144 0.0 0.0 0.00 0.00 0.00 85 1016.0
20260507094009 13 144 0.0 0.0 0.00 0.00 0.00 85 1016.1
20260507093511 13 144 0.0 0.0 0.00 0.00 0.00 85 1016.1
20260507093005 13 144 0.0 0.0 0.00 0.00 0.00 84 1016.1
20260507092504 13 144 0.0 0.0 0.00 0.00 0.00 84 1016.2
20260507092100 13 144 0.0 0.0 0.00 0.00 0.00 84 1016.2
20260507091558 13 144 0.0 0.0 0.00 0.00 0.00 84 1016.3
20260507091056 13 144 0.0 0.0 0.00 0.00 0.00 84 1016.5
20260507090554 13 144 0.0 0.0 0.00 0.00 0.00 84 1016.4
20260507090051 13 144 0.0 0.0 0.00 0.00 0.00 83 1016.4
20260507085549 13 144 0.0 0.0 0.00 0.00 0.00 83 1016.5
20260507085047 13 144 0.0 0.0 0.00 0.00 0.00 83 1016.6
20260507084544 13 144 0.0 0.0 0.00 0.00 0.00 83 1016.7
20260507084042 13 144 0.0 0.0 0.00 0.00 0.00 83 1016.6
20260507083542 13 144 0.0 0.0 0.00 0.00 0.00 82 1016.8
20260507082534 13 144 0.0 0.0 0.00 0.00 0.00 82 1016.9
20260507082032 13 144 0.0 0.0 0.00 0.00 0.00 82 1016.9
20260507081530 13 144 0.0 0.0 0.00 0.00 0.00 82 1017.0
20260507081028 14 144 0.0 0.0 0.00 0.00 0.00 82 1017.0
20260507080630 14 144 0.0 0.0 0.00 0.00 0.00 82 1017.0
20260507080025 14 144 0.0 0.0 0.00 0.00 0.00 81 1017.0
20260507075522 14 144 0.0 0.0 0.00 0.00 0.00 81 1017.0
20260507075018 14 144 0.0 0.0 0.00 0.00 0.00 81 1016.9
20260507074516 14 144 0.0 0.0 0.00 0.00 0.00 81 1016.9
20260507074014 14 144 0.0 0.0 0.00 0.00 0.00 81 1016.8
20260507073613 14 144 0.0 0.0 0.00 0.00 0.00 81 1016.7
20260507073110 14 144 0.0 0.0 0.00 0.00 0.00 81 1016.8
20260507072508 14 144 0.0 0.0 0.00 0.00 0.00 81 1016.8
20260507072006 14 144 0.0 0.0 0.00 0.00 0.00 81 1016.9
20260507071604 14 144 0.0 0.0 0.00 0.00 0.00 80 1016.9
20260507071003 15 144 0.0 0.0 0.00 0.00 0.00 80 1016.9
20260507070559 15 144 0.0 0.0 0.00 0.00 0.00 80 1016.9
20260507070114 15 144 0.0 0.0 0.00 0.00 0.00 80 1017.0
20260507065654 15 144 0.0 0.0 0.00 0.00 0.00 80 1017.0
20260507065053 15 144 0.0 0.0 0.00 0.00 0.00 80 1017.0
20260507064550 15 144 0.0 0.0 0.00 0.00 0.00 79 1017.0
20260507064048 15 144 0.0 0.0 0.00 0.00 0.00 79 1017.1
20260507063546 15 144 0.0 0.0 0.00 0.00 0.00 79 1017.1
20260507063054 15 144 0.0 0.0 0.00 0.00 0.00 78 1017.1
20260507062541 15 144 0.0 0.0 0.00 0.00 0.00 78 1017.1
20260507062039 15 144 0.0 0.0 0.00 0.00 0.00 78 1017.0
20260507061536 15 144 0.0 0.0 0.00 0.00 0.00 78 1017.1
20260507061035 15 144 0.0 0.0 0.00 0.00 0.00 78 1017.2
20260507060532 15 144 0.0 0.0 0.00 0.00 0.00 77 1017.2
20260507060041 15 144 0.0 0.0 0.00 0.00 0.00 77 1017.2
20260507055528 15 144 0.0 0.0 0.00 0.00 0.00 77 1017.2
20260507055127 15 144 0.0 0.0 0.00 0.00 0.00 77 1017.2
20260507054524 15 144 0.0 0.0 0.00 0.00 0.00 77 1017.1
20260507054024 15 144 0.0 0.0 0.00 0.00 0.00 77 1017.1
20260507053521 15 144 0.0 0.0 0.00 0.00 0.00 76 1017.0
20260507053020 15 144 0.0 0.0 0.00 0.00 0.00 76 1017.1
20260507052516 15 144 0.0 0.0 0.00 0.00 0.00 76 1017.0
20260507052118 15 144 0.0 0.0 0.00 0.00 0.00 75 1017.0
20260507051513 16 144 0.0 0.0 0.00 0.00 0.00 75 1017.0
20260507051109 16 144 0.0 0.0 0.00 0.00 0.00 75 1017.0
20260507050507 16 144 0.0 0.0 0.00 0.00 0.00 75 1017.0
20260507050006 16 144 0.0 0.0 0.00 0.00 0.00 74 1016.9
20260507045505 16 144 0.0 0.0 0.00 0.00 0.00 74 1016.9
20260507045103 16 144 0.0 0.0 0.00 0.00 0.00 74 1016.9
20260507044501 16 144 0.0 0.0 0.00 0.00 0.00 74 1017.0
20260507044200 16 144 0.0 0.0 0.00 0.00 0.00 74 1017.0
20260507043558 16 144 0.0 0.0 0.00 0.00 0.00 73 1016.9
20260507043056 16 144 0.0 0.0 0.00 0.00 0.00 73 1016.9
20260507042554 16 144 0.0 0.0 0.00 0.00 0.00 73 1016.9
20260507042056 16 144 0.0 0.0 0.00 0.00 0.00 73 1016.9
20260507041551 16 144 0.0 0.0 0.00 0.00 0.00 72 1016.9
20260507041049 16 144 0.0 0.0 0.00 0.00 0.00 72 1016.9
20260507040548 17 144 0.0 0.0 0.00 0.00 0.00 72 1016.9
20260507040046 17 144 0.0 0.0 0.00 0.00 0.00 71 1016.8
20260507035544 17 144 0.0 0.0 0.00 0.00 0.00 71 1016.8
20260507035143 17 144 0.0 0.0 0.00 0.00 0.00 71 1016.7
20260507034542 17 144 0.0 0.0 0.00 0.00 0.00 71 1016.6
20260507034039 17 144 0.0 0.0 0.00 0.00 0.00 71 1016.6
20260507033538 17 144 0.0 0.0 0.00 0.00 0.00 71 1016.6
20260507033039 17 144 0.0 0.0 0.00 0.00 0.00 70 1016.6
20260507032539 17 144 0.0 0.0 0.00 0.00 0.00 70 1016.5
20260507032033 17 144 0.0 0.0 0.00 0.00 0.00 70 1016.5
20260507031533 17 144 0.0 0.0 0.00 0.00 0.00 70 1016.5
20260507031029 18 144 0.0 0.0 0.00 0.00 0.00 70 1016.3
20260507030528 18 144 0.0 0.0 0.00 0.00 0.00 69 1016.3
20260507030025 18 144 0.0 0.0 0.00 0.00 0.00 69 1016.2
20260507025523 18 144 0.0 0.0 0.00 0.00 0.00 69 1016.2
20260507025021 18 144 0.0 0.0 0.00 0.00 0.00 69 1016.2
20260507024523 18 144 0.0 0.0 0.00 0.00 0.00 69 1016.1
20260507024019 18 144 0.0 0.0 0.00 0.00 0.00 68 1016.0
20260507023516 18 144 0.0 0.0 0.00 0.00 0.00 68 1015.9
20260507023021 18 144 0.0 0.0 0.00 0.00 0.00 68 1016.0
20260507022512 18 144 0.0 0.0 0.00 0.00 0.00 69 1015.9
20260507022013 18 144 0.0 0.0 0.00 0.00 0.00 68 1015.9
20260507021508 18 144 0.0 0.0 0.00 0.00 0.00 67 1015.8
20260507021007 18 144 0.0 0.0 0.00 0.00 0.00 67 1015.8
20260507020506 19 144 0.0 0.0 0.00 0.00 0.00 66 1015.8
20260507020010 19 144 0.0 0.0 0.00 0.00 0.00 66 1015.7
20260507015502 19 144 0.0 0.0 0.00 0.00 0.00 66 1015.7
20260507015001 19 144 0.0 1.6 0.00 0.00 0.00 66 1015.7
20260507014603 19 144 0.0 1.6 0.00 0.00 0.00 66 1015.7
20260507014058 20 144 0.0 1.6 0.00 0.00 0.00 66 1015.6
20260507013655 20 144 0.0 4.8 0.00 0.00 0.00 66 1015.7
20260507013111 20 144 0.0 4.8 0.00 0.00 0.00 66 1015.6
20260507012553 20 144 0.0 1.6 0.00 0.00 0.00 66 1015.5
20260507012051 20 144 0.0 1.6 0.00 0.00 0.00 66 1015.6
20260507011650 20 144 0.0 6.4 0.00 0.00 0.00 67 1015.6
20260507011045 20 144 0.0 6.4 0.00 0.00 0.00 66 1015.5
20260507010544 20 144 0.0 3.2 0.00 0.00 0.00 66 1015.5
20260507010053 20 144 0.0 3.2 0.00 0.00 0.00 66 1015.5
20260507005541 20 144 0.0 1.6 0.00 0.00 0.00 65 1015.5
20260507005039 20 144 0.0 4.8 0.00 0.00 0.00 65 1015.5
20260507004538 20 144 0.0 6.4 0.00 0.00 0.00 66 1015.5
20260507004138 21 144 0.0 6.4 0.00 0.00 0.00 66 1015.4
20260507003540 21 144 0.0 9.7 0.00 0.00 0.00 65 1015.5
20260507003033 21 144 0.0 4.8 0.00 0.00 0.00 64 1015.4
20260507002531 21 144 0.0 1.6 0.00 0.00 0.00 64 1015.4
20260507002029 21 144 0.0 3.2 0.00 0.00 0.00 62 1015.4
20260507001630 21 144 0.0 4.8 0.00 0.00 0.00 62 1015.4
20260507001027 21 144 0.0 4.8 0.00 0.00 0.00 62 1015.3
20260507000525 21 144 0.0 6.4 0.00 0.00 0.00 61 1015.3
20260507000023 21 144 0.0 6.4 0.00 0.00 0.00 61 1015.3
20260506235521 21 144 0.0 1.6 0.00 0.00 0.00 61 1015.3
20260506235019 21 144 0.0 3.2 0.00 0.00 0.00 61 1015.3
20260506234525 21 144 0.0 6.4 0.00 0.00 0.00 61 1015.3
20260506234017 21 144 0.0 3.2 0.00 0.00 0.00 61 1015.2
20260506233514 21 144 0.0 3.2 0.00 0.00 0.00 60 1015.2
20260506233014 21 144 0.0 3.2 0.00 0.00 0.00 58 1015.3
20260506232510 21 144 0.0 3.2 0.00 0.00 0.00 58 1015.3
20260506232008 21 144 0.0 3.2 0.00 0.00 0.00 58 1015.3
20260506231505 21 144 0.0 11.3 0.00 0.00 0.00 59 1015.2
20260506231004 21 144 0.0 11.3 0.00 0.00 0.00 60 1015.4
20260506230502 20 144 0.0 4.8 0.00 0.00 0.00 61 1015.4
20260506230106 20 144 0.0 6.4 0.00 0.00 0.00 62 1015.4
20260506225601 21 144 0.0 6.4 0.00 0.00 0.00 63 1015.5
20260506225056 21 144 0.0 8.0 0.00 0.00 0.00 62 1015.5
20260506224554 21 144 0.0 6.4 0.00 0.00 0.00 63 1015.6
20260506224053 21 144 0.0 8.0 0.00 0.00 0.00 64 1015.7
20260506223550 21 144 0.0 9.7 0.00 0.00 0.00 65 1015.8
20260506223049 21 144 0.0 9.7 0.00 0.00 0.00 65 1015.8
20260506222545 21 144 0.0 8.0 0.00 0.00 0.00 65 1016.0
20260506222043 21 144 0.0 8.0 0.00 0.00 0.00 64 1016.0
20260506221540 21 144 0.0 4.8 0.00 0.00 0.00 64 1016.0
20260506221037 21 144 0.0 6.4 0.00 0.00 0.00 64 1016.0
20260506220541 21 144 0.0 9.7 0.00 0.00 0.00 62 1016.2
20260506220036 21 144 0.0 9.7 0.00 0.00 0.00 61 1016.2
20260506215536 21 144 0.0 4.8 0.00 0.00 0.00 61 1016.2
20260506215032 21 144 0.0 9.7 0.00 0.00 0.00 60 1016.3
20260506214530 21 144 0.0 9.7 0.00 0.00 0.00 60 1016.3
20260506214028 21 144 0.0 9.7 0.00 0.00 0.00 60 1016.3
20260506213525 21 144 0.0 9.7 0.00 0.00 0.00 60 1016.5
20260506213026 21 144 0.0 8.0 0.00 0.00 0.00 61 1016.5
20260506212521 21 144 0.0 8.0 0.00 0.00 0.00 61 1016.6
20260506212018 21 144 0.0 8.0 0.00 0.00 0.00 60 1016.6
20260506211523 21 144 0.0 6.4 0.00 0.00 0.00 60 1016.6
20260506211013 22 144 0.0 11.3 0.00 0.00 0.00 61 1016.7
20260506210517 22 144 0.0 11.3 0.00 0.00 0.00 62 1016.7
20260506210012 22 144 0.0 6.4 0.00 0.00 0.00 61 1016.7
20260506205508 22 144 0.0 12.9 0.00 0.00 0.00 60 1016.7
20260506205010 22 144 1.6 12.9 0.00 0.00 0.00 61 1016.7
20260506204506 22 144 1.6 11.3 0.00 0.00 0.00 60 1016.8
20260506204002 22 144 0.0 8.0 0.00 0.00 0.00 59 1016.8
20260506203701 22 144 0.0 8.0 0.00 0.00 0.00 61 1016.8
20260506203057 22 144 0.0 9.7 0.00 0.00 0.00 60 1016.8
20260506202556 23 144 1.6 9.7 0.00 0.00 0.00 59 1016.8
20260506202054 23 144 0.0 8.0 0.00 0.00 0.00 59 1016.8
20260506201552 23 144 0.0 8.0 0.00 0.00 0.00 59 1017.0
20260506201049 23 144 0.0 9.7 0.00 0.00 0.00 59 1016.9
20260506200547 23 144 0.0 6.4 0.00 0.03 0.00 60 1017.1
20260506200047 23 144 0.0 12.9 0.00 0.03 0.00 59 1017.2
20260506195543 23 144 1.6 12.9 0.00 0.03 0.00 59 1017.2
20260506195042 23 144 1.6 9.7 0.00 0.03 0.00 60 1017.3
20260506194546 23 144 0.0 9.7 0.00 0.03 0.00 61 1017.3
20260506194036 23 144 0.0 9.7 0.00 0.03 0.00 61 1017.4
20260506193534 23 144 0.0 8.0 0.00 0.03 0.00 61 1017.4
20260506193031 22 144 0.0 8.0 0.00 0.03 0.00 62 1017.5
20260506192530 22 144 0.0 6.4 0.00 0.03 0.00 63 1017.5
20260506192026 22 144 0.0 8.0 0.00 0.03 0.00 64 1017.6
20260506191522 22 144 0.0 6.4 0.00 0.03 0.00 64 1017.7
20260506191019 21 144 0.0 6.4 0.00 0.03 0.00 66 1017.7
20260506190517 21 144 0.0 6.4 0.00 0.03 0.00 66 1017.7